Retour au catalogue

COSMOS 2251 DEB

ActifLEO
NORAD 37340·DEBRIS·🇷🇺 Russia

Lancé Jun 16, 1993 depuis Plesetsk Cosmodrome

Loading…

Prochains Passages (prochaines 24 heures)

TLE

FraisSource: Space-Track

Époque: Sep 14, 2026, 08:02 UTC

1 37340U 93036BLG 26257.33479962  .00000258  00000-0  95306-4 0  9995
2 37340  74.0244 130.0078 0018138 165.7956 194.3712 14.37176533880260

Suivez COSMOS 2251 DEB en temps réel avec AllMySat

Download on the App Store